SITRO-AIS 9 (SHCHUKIN)

Last updated on Sun Dec 14 2025 00:03:50 GMT+0000 (Coordinated Universal Time)

1 57201U 23091AM 25347.29715029 .00027519 00000+0 92863-3 0 9990 2 57201 97.5356 49.0479 0008457 24.6753 335.4891 15.30634170136245
UTC large
Height (km)
Speed (km/s)
/
Latitude / Longitude
Inclination (degrees)
Orbital Period (minutes)
Azimuth
Elevation
Range (km)
Doppler Factor

Next 0 passes for location: London (51.5072 / 0.1276)

Sorry there are no passes over London.